Regional Weather Roundup
Issued by NWS

Home | Current Version | Previous Version | Graphics & Text | Print | Product List | Glossary On
Versions: 1 2 3 4 5 6 7 8 9 10 11 12 13 14 15 16 17 18 19 20 21 22 23 24 25 26 27 28 29 30 31 32 33 34 35 36 37 38 39 40 41 42 43 44 45 46 47 48 49 50
000
ASUS43 KOAX 260602
RWRNE

WEATHER ROUNDUP FOR NEBRASKA
NATIONAL WEATHER SERVICE OMAHA NE
1200 AM CST FRI DEC 26 2014

NOTES: SATELLITE DATA IS BEING USED TO AUGMENT CLOUD COVER ABOVE
       12000 FEET.
       "FAIR" INDICATES FEW OR NO CLOUDS BELOW 12,000 FEET WITH NO
       SIGNIFICANT WEATHER AND/OR OBSTRUCTIONS TO VISIBILITY.

  * THESE STATIONS DO NOT REPORT WEATHER SUCH AS RAIN...SNOW OR FOG.

NEZ001>004-019>022-054>056-260700-
NEBRASKA PANHANDLE

CITY           SKY/WX    TMP DP  RH WIND       PRES   REMARKS
SCOTTSBLUFF    LGT SNOW  22  20  92 W6        29.94R FOG     WCI  14
6HR MIN TEMP:  22; 6HR MAX TEMP:  26; 6HR PCP:  0.11;

ALLIANCE       LGT SNOW  22  19  89 N14       29.89S FOG     WCI   9
6HR MIN TEMP:  22; 6HR MAX TEMP:  26;

CHADRON        CLOUDY    23  19  85 N17       29.97R WCI   9
6HR MIN TEMP:  23; 6HR MAX TEMP:  25; 6HR PCP: TRACE;

KIMBALL        CLOUDY    20  18  93 N7        29.87R WCI  11
SIDNEY         LGT SNOW  21  18  88 N12       29.89R FOG     WCI   9
6HR MIN TEMP:  21; 6HR MAX TEMP:  25; 6HR PCP:  0.03;

$$

NEZ057>060-069>072-079>082-260700-
SOUTHWEST NEBRASKA

CITY           SKY/WX    TMP DP  RH WIND       PRES   REMARKS
NORTH PLATTE   CLOUDY    26  23  88 N16       29.86R WCI  14
6HR MIN TEMP:  26; 6HR MAX TEMP:  31; 6HR PCP: TRACE;

IMPERIAL       CLOUDY    26  23  88 N16       29.88R FOG     WCI  14
6HR MIN TEMP:  26; 6HR MAX TEMP:  31; 6HR PCP: TRACE;

LEXINGTON      CLOUDY    30  26  86 N18G26    29.82R WCI  18
MCCOOK         CLOUDY    30  24  78 N17       29.84R WCI  18
6HR MIN TEMP:  29; 6HR MAX TEMP:  34;

$$

NEZ005>010-023>029-035>040-094-260700-
NORTH CENTRAL NEBRASKA

CITY           SKY/WX    TMP DP  RH WIND       PRES   REMARKS
VALENTINE      CLOUDY    24  21  88 N17G23    29.94R WCI  11
6HR MIN TEMP:  24; 6HR MAX TEMP:  28; 6HR PCP:  0.04;

AINSWORTH      CLOUDY    24  21  89 N20       29.89S WCI   9
BROKEN BOW     CLOUDY    27  24  89 N22G28    29.85R FOG     WCI  13
6HR MIN TEMP:  27; 6HR MAX TEMP:  31; 6HR PCP: TRACE;

ORD            CLOUDY    27  24  89 N15G28    29.84R WCI  15
6HR MIN TEMP:  27; 6HR MAX TEMP:  32;

$$

NEZ041-046>049-061>064-073>077-083>087-260700-
SOUTH CENTRAL NEBRASKA

CITY           SKY/WX    TMP DP  RH WIND       PRES   REMARKS
GRAND ISLAND   CLOUDY    32  29  88 N17       29.80R WCI  21
6HR MIN TEMP:  28; 6HR MAX TEMP:  32;

AURORA         CLOUDY    32  31  96 N18G24    29.78R WCI  21
HASTINGS       CLOUDY    32  28  85 N20G28    29.77R WCI  20
6HR MIN TEMP:  30; 6HR MAX TEMP:  34;

HEBRON         CLEAR     31  28  89 N8        29.74R WCI  24
HOLDREGE       CLOUDY    31  28  88 N22G28    29.80R WCI  18
KEARNEY *      CLOUDY    30  25  80 NW24      29.81R WCI  16
YORK           MOCLDY    32  32 100 N15G21    29.76R WCI  22
$$

NEZ011>018-030>034-042>045-260700-
NORTHEAST NEBRASKA

CITY           SKY/WX    TMP DP  RH WIND       PRES   REMARKS
NORFOLK        CLOUDY    33  30  88 N14       29.80R WCI  23
6HR MIN TEMP:  33; 6HR MAX TEMP:  35;

ALBION         CLOUDY    30  27  90 N16G25    29.82R FOG     WCI  18
BLAIR          CLEAR     33  31  92 N12       29.73R WCI  24
COLUMBUS *     CLOUDY    32  27  80 N20       29.78R WCI  20
FREMONT        CLEAR     32  31  96 NW5       29.76R WCI  27
TEKAMAH        CLEAR     32  30  92 N9        29.76R WCI  24
6HR MIN TEMP:  32; 6HR MAX TEMP:  37;

WAYNE          CLOUDY    33  31  93 N12       29.81R WCI  24
$$

NEZ050>053-065>068-078-088>093-260700-
SOUTHEAST NEBRASKA

CITY           SKY/WX    TMP DP  RH WIND       PRES   REMARKS
LINCOLN        CLEAR     31  28  89 N10       29.76R WCI  22
6HR MIN TEMP:  28; 6HR MAX TEMP:  41;

OMAHA EPPLEY   CLEAR     32  30  92 N12       29.75R WCI  23
6HR MIN TEMP:  30; 6HR MAX TEMP:  43;

BEATRICE       CLEAR     37  29  73 CALM      29.72R
FALLS CITY     MOCLDY    36  29  75 SE6       29.74R WCI  31
6HR MIN TEMP:  36; 6HR MAX TEMP:  45;

NEBRASKA CITY  PTCLDY    36  28  71 S7        29.73S WCI  31
$$

NEZ044-045-051>053-067-260700-
OMAHA AREA

CITY           SKY/WX    TMP DP  RH WIND       PRES   REMARKS
OMAHA EPPLEY   CLEAR     32  30  92 N12       29.75R WCI  23
6HR MIN TEMP:  30; 6HR MAX TEMP:  43;

BLAIR          CLEAR     33  31  92 N12       29.73R WCI  24
FREMONT        CLEAR     32  31  96 NW5       29.76R WCI  27
OFFUTT AFB     CLEAR     28  27  94 N1        29.73R
WAHOO          FAIR      31  28  90 NW12      29.75R WCI  22
$$


USA.gov is the U.S. government's official web portal to all federal, state and local government web resources and services.